STARLINK-31649, 59390

Orbit data source: Space-Track

STARLINK-31649, 59390 is a payload satellite owned by SpaceX/Seattle (US) in LEO that was launched on Tue, 02 Apr 2024 UTC via an FALCON 9 launch vehicle from the Air Force Western Test Range (AFWTR). Payload-class satellites include a variety of spacecraft equipped with specific instruments for various scientific and technological missions. These include communications satellites like Starlink; space stations such as the ISS; scientific satellites like the Hubble; Earth observation satellites from companies like Planet Labs, Umbra, and HawkEye 360; GPS; miniature CubeSats for education and research; and military/defense satellites.

Loading next visibility...
Identifier
59390, 2024-062S
Orbit
LEO
Country
Flag of USUS
Related business
Manufacturer
SpaceX/Seattle
Mission
Operational Commercial Communications
Bus & Motor
STARLINK V2M, Unknown motor
Mass
730 kg wet, ~700 kg dry
Launch date (UTC)
2024-04-02 (2 years ago)
Launch vehicle
FALCON 9
Launch site
Air Force Western Test Range (AFWTR)
Object type
Payload
Rocket body
Debris
Shape & HBR
Box + 2 Pan, 17.7 m
Radar Cross Section
33.884 m², Large (>1 m²)

Expand to show TLE details & history
Last TLE update: 2 days ago

TLE from 2 days ago
0 STARLINK-31649
1 59390U 24062S   26171.20520439  .00000845  00000-0  36142-4 0  9999
2 59390  53.1613 139.0205 0001304  93.4971 266.6181 15.34396453125379
Epoch: 2026-06-20T04:55Z
TLE epoch observation values (Epoch: 2026-06-20T04:55:29.659Z)
Latitude
0.00001°
Longitude
156.72376°
Altitude
463.668 km
Speed
7.636 km/s
True Right ascension
09h 16m 04s
True Declination
0° 00' 00"
Sunlit
Object was in daylight at epoch
Visualization orbit readout
Latitude
Unknown
Longitude
Unknown
Altitude
Unknown
Speed
Unknown
Apparent Right ascension
Unknown
Apparent Declination
Unknown
Sunlit
N/A
Visualization observer readout
Local Sidereal Time
21:31:55
Azimuth
Unknown
Elevation
Unknown
Doppler factor
Unknown
Orbital elements
Apogee altitude
463.863 km
Perigee altitude
462.078 km
Semi-major axis
6,841.107 km
Eccentricity
0.00013
Inclination
53.1613°
RAAN
139.0205°
Arg. of periapsis
93.4971°
True anomaly
266.60318°
Mean anomaly
266.6181°
Eccentric anomaly
266.61064°
Mean motion
3.83578 °/min
Orbital period
93.85 mins
BSTAR
0.000036142
Loading maneuver chart data...
Computing Atmospheric mass density...
Loading historical data...
Loading historical data...
Loading historical data...
Loading historical data...
Loading historical data...
Loading historical data...
Loading historical data...

Documentation

Showing up to 5 results
|